Weather History for Wiscasset, ME

Change the Weather History Date:

Saturday, November 23, 2013

  Actual Average Record
Temperature  
Mean Temperature 33 °F -  
Max Temperature 41 °F 42 °F 66 °F (1999)
Min Temperature 25 °F 26 °F 12 °F (2008)
Degree Days  
Heating Degree Days 32    
Moisture  
Dew Point 23 °F    
Average Humidity 69    
Maximum Humidity 97    
Minimum Humidity 32    
Precipitation  
Precipitation 0.06 in - - ()
Sea Level Pressure  
Sea Level Pressure 29.73 in    
Wind  
Wind Speed 4 mph (WNW)    
Max Wind Speed 13 mph    
Max Gust Speed 25 mph    
Visibility 8 miles    
Events Fog , Snow    
Averages and records for this station are not official NWS values.
T = Trace of Precipitation, MM = Missing Value Source: NWS Daily Summary

Daily Weather History Graph

Daily Weather History Graph

Search for Another Location

Airport:

Trip Planner

Search our weather history database for the weather conditions in past years. The results will help you decide how hot, cold, wet, or windy it might be!

Date:

Astronomy

Nov. 23, 2013 Rise Set
Actual Time 6:44 AM EST 4:06 PM EST
Civil Twilight 6:12 AM EST 4:37 PM EST
Nautical Twilight 5:36 AM EST 5:13 PM EST
Astronomical Twilight 5:02 AM EST 5:47 PM EST
Moon 9:36 PM EST (11/23) 10:55 AM EST (11/23)
Length of Visible Light 10h 25m
Length of Day
9h 21m
Waning Gibbous, 70% of the Moon is Illuminated
Nov 23
Waning Gibbous
Nov 25
Last Quarter
Dec 2
New
Dec 9
First Quarter
Dec 17
Full

Hourly Weather History & Observations

Time (EST) Temp. Windchill Dew Point Humidity Pressure Visibility Wind Dir Wind Speed Gust Speed Precip Events Conditions
12:37 AM 36.0 °F - 35.1 °F 97% 29.76 in 9.0 mi Calm Calm - N/A   Overcast
12:53 AM 37.0 °F - 35.1 °F 93% 29.76 in 7.0 mi Calm Calm - N/A   Overcast
1:53 AM 37.0 °F - 35.1 °F 93% 29.74 in 8.0 mi Calm Calm - 0.00 in   Overcast
2:53 AM 37.9 °F 34.4 °F 36.0 °F 93% 29.73 in 10.0 mi West 4.6 mph - N/A   Overcast
3:16 AM 37.9 °F 35.5 °F 36.0 °F 93% 29.72 in 10.0 mi West 3.5 mph - N/A   Overcast
3:53 AM 37.0 °F 33.3 °F 35.1 °F 93% 29.72 in 9.0 mi West 4.6 mph - N/A   Mostly Cloudy
4:53 AM 37.0 °F 32.4 °F 34.0 °F 89% 29.72 in 10.0 mi West 5.8 mph - N/A   Clear
5:53 AM 37.9 °F 33.5 °F 30.9 °F 76% 29.74 in 10.0 mi Variable 5.8 mph - N/A   Clear
6:53 AM 37.0 °F 30.4 °F 27.0 °F 67% 29.77 in 10.0 mi WNW 9.2 mph - N/A   Mostly Cloudy
7:53 AM 37.0 °F 29.8 °F 23.0 °F 57% 29.78 in 10.0 mi WNW 10.4 mph 23.0 mph N/A   Clear
8:53 AM 37.9 °F 33.5 °F 21.0 °F 51% 29.81 in 10.0 mi Variable 5.8 mph 19.6 mph N/A   Clear
9:53 AM 37.9 °F 30.9 °F 19.9 °F 48% 29.81 in 10.0 mi WNW 10.4 mph 25.3 mph N/A   Clear
10:53 AM 39.0 °F 31.4 °F 19.0 °F 45% 29.79 in 10.0 mi WNW 12.7 mph 25.3 mph N/A   Clear
11:53 AM 39.0 °F 31.4 °F 16.0 °F 39% 29.78 in 10.0 mi West 12.7 mph 25.3 mph N/A   Clear
12:53 PM 41.0 °F 35.8 °F 14.0 °F 33% 29.75 in 10.0 mi West 8.1 mph 19.6 mph N/A   Clear
1:53 PM 41.0 °F 35.2 °F 15.1 °F 35% 29.75 in 10.0 mi NW 9.2 mph 18.4 mph N/A   Clear
2:53 PM 39.0 °F 33.4 °F 10.9 °F 32% 29.75 in 10.0 mi WNW 8.1 mph 23.0 mph N/A   Clear
3:53 PM 36.0 °F 29.6 °F 12.9 °F 39% 29.74 in 10.0 mi WNW 8.1 mph - N/A   Clear
4:53 PM 34.0 °F 28.8 °F 12.9 °F 42% 29.76 in 10.0 mi Variable 5.8 mph - N/A   Clear
5:53 PM 30.9 °F 27.5 °F 12.9 °F 47% 29.75 in 10.0 mi Variable 3.5 mph - N/A   Clear
6:53 PM 28.0 °F - 15.1 °F 58% 29.74 in 10.0 mi Calm Calm - N/A   Clear
7:53 PM 25.0 °F - 16.0 °F 69% 29.73 in 10.0 mi Calm Calm - N/A   Clear
8:53 PM 25.0 °F - 17.1 °F 72% 29.70 in 10.0 mi Calm Calm - N/A   Mostly Cloudy
9:53 PM 27.0 °F 23.0 °F 17.1 °F 66% 29.70 in 10.0 mi West 3.5 mph - N/A   Mostly Cloudy
10:53 PM 28.0 °F 24.2 °F 19.9 °F 72% 29.68 in 10.0 mi Variable 3.5 mph - N/A   Scattered Clouds
11:17 PM 28.0 °F 20.0 °F 19.9 °F 72% 29.70 in 1.0 mi NW 8.1 mph 17.3 mph 0.01 in Snow Light Snow
11:20 PM 27.0 °F 21.6 °F 21.9 °F 81% 29.70 in 0.5 mi Variable 4.6 mph 17.3 mph 0.02 in Snow Snow
11:33 PM 27.0 °F 20.5 °F 24.1 °F 89% 29.69 in 0.2 mi Variable 5.8 mph - 0.05 in Fog , Snow Heavy Snow
11:44 PM 27.0 °F - 25.0 °F 92% 29.68 in 0.8 mi Calm Calm - 0.06 in Snow Light Snow
11:47 PM 26.6 °F 22.6 °F 24.8 °F 93% 29.68 in 1.5 mi Variable 3.5 mph - 0.06 in Snow Light Snow
11:50 PM 26.6 °F 21.2 °F 24.8 °F 93% 29.68 in 3.0 mi West 4.6 mph - 0.06 in Snow Light Snow
11:53 PM 27.0 °F 23.0 °F 24.1 °F 89% 29.68 in 5.0 mi West 3.5 mph - 0.06 in Snow Light Snow